This is the latest recevied weather packets stored in our database for station/object KN6DHD. If no packets are shown the sender has not sent any weather packets the latest 10 day(s).
| Time | Temp. | Humidity | Pressure | Rain* | Wind** | Luminosity | Snow |
|---|---|---|---|---|---|---|---|
| 1778018478 | 20° C | 71% | 1016.1 hPa | 0 mm | - | 467 W/m² | - |
| 1778018176 | 19.44° C | 72% | 1015.9 hPa | 0 mm | - | 305 W/m² | - |
| 1778017874 | 19.44° C | 73% | 1016.2 hPa | 0 mm | - | 193 W/m² | - |
| 1778017571 | 20° C | 71% | 1015.9 hPa | 0 mm | - | 354 W/m² | - |
| 1778017268 | 18.89° C | 74% | 1016 hPa | 0 mm | - | 471 W/m² | - |
| 1778016966 | 18.89° C | 74% | 1016.1 hPa | 0 mm | - | 904 W/m² | - |
| 1778016662 | 18.33° C | 76% | 1016 hPa | 0 mm | - | 309 W/m² | - |
| 1778016358 | 18.33° C | 75% | 1015.8 hPa | 0 mm | - | 315 W/m² | - |
| 1778016056 | 17.78° C | 78% | 1016 hPa | 0 mm | - | 269 W/m² | - |
| 1778015753 | 17.78° C | 77% | 1016.3 hPa | 0 mm | - | 258 W/m² | - |
| 1778015450 | 17.78° C | 79% | 1016.3 hPa | 0 mm | - | 238 W/m² | - |
| 1778015146 | 17.22° C | 81% | 1016.3 hPa | 0 mm | - | 216 W/m² | - |
| 1778014844 | 17.22° C | 81% | 1016.1 hPa | 0 mm | - | 213 W/m² | - |
| 1778014541 | 16.67° C | 81% | 1016.1 hPa | 0 mm | - | 203 W/m² | - |
| 1778014239 | 16.67° C | 82% | 1016.5 hPa | 0 mm | - | 181 W/m² | - |
| 1778013936 | 16.67° C | 82% | 1016.4 hPa | 0 mm | - | 127 W/m² | - |
| 1778013633 | 16.67° C | 82% | 1016.5 hPa | 0 mm | - | 107 W/m² | - |
| 1778013330 | 16.67° C | 83% | 1016.3 hPa | 0 mm | - | 127 W/m² | - |
| 1778013027 | 16.67° C | 83% | 1016.1 hPa | 0 mm | - | 120 W/m² | - |
| 1778012723 | 16.67° C | 83% | 1016.4 hPa | 0 mm | - | 120 W/m² | - |
| 1778012419 | 16.67° C | 83% | 1016.2 hPa | 0 mm | - | 117 W/m² | - |
| 1778012116 | 16.67° C | 82% | 1016.4 hPa | 0 mm | - | 114 W/m² | - |
| 1778011813 | 16.67° C | 82% | 1016.4 hPa | 0 mm | - | 122 W/m² | - |
| 1778011511 | 16.67° C | 84% | 1016.3 hPa | 0 mm | - | 119 W/m² | - |
| 1778011208 | 16.67° C | 82% | 1016.4 hPa | 0 mm | - | 111 W/m² | - |
* Rain latest hour (hover to see other rain measurements)
** Current wind speed in m/s (hover to see current wind gust speed)